{"data":{"norad_id":51805,"intl_designator":"2022-017AP","name":"STARLINK-3605","alt_names":[],"object_type":"PAYLOAD","status":"ACTIVE","operator":null,"country":"US","launch_date":"2022-02-25","launch_site_code":"AFWTR","launch_vehicle":null,"mission":null,"orbit_class":"UNKNOWN","rcs_meters":null,"size_class":null,"mass_kg":null,"dimensions":null,"purposes":["comms"],"wikipedia_slug":null,"has_3d_model":false,"image_url":null,"decayed_at":null,"tle_current":{"epoch":"2026-09-20T00:27:08.373024Z","epoch_age_seconds":93834,"freshness":"FRESH","line1":"1 51805U 22017AP  26263.01884691  .00001726  00000+0  63805-4 0  9998","line2":"2 51805  53.1605 166.1224 0001315  90.7197 269.3956 15.33545217253721","mean_motion":15.33545217,"eccentricity":0.0001315,"inclination_deg":53.1605,"raan_deg":166.1224,"arg_perigee_deg":90.7197,"mean_anomaly_deg":269.3956,"bstar":6.3805e-5,"rev_number":25372,"period_min":93.900067897378,"perigee_km":464.34511069798,"apogee_km":466.14492016804,"semimajor_km":6843.382015433,"source":"CELESTRAK","updated_at":"2026-09-20T09:00:39.942349Z"}}}